[[{"header":{"parameterUnit":"m.s-1","parameterCategory":2,"la1":30.2991,"la2":30.254,"lo1":-89.0895,"lo2":-89.0444,"dy":0.0017,"dx":0.0017,"nx":28,"ny":28,"refTime":"2024-08-06T03:00:00:Z","depth":"0","parameterNumber":2,"parameterNumberName":"U-component_of_CURRENTS"},"data":[0,0,0,0,0,0,0,0,0,0,0,0,0,0,0,0,0,0,0,0,0,0,0,0,0,0,0,0,0,0,0,0,0,0,0,0,0,0,0,0,0,0,0,0,0,0,0,0,0,0,0,0,0,0,0,0,0,0,0.279,0.2792,0,0.2907,0.2908,0.291,0.2973,0.2973,0.2974,0.2974,0.2982,0.2982,0.2982,0,0,0,0,0,0,0,0,0,0,0,0,0,0.2637,0.2639,0.279,0.2792,0.2794,0.2907,0.2908,0.291,0.2973,0.2973,0.2974,0.2974,0.2982,0.2982,0.2982,0,0,0,0,0,0,0,0,0,0,0,0,0,0.2722,0.264,0.279,0.284,0.2845,0.2907,0.2908,0.291,0.2973,0.2973,0.2974,0.2974,0.2982,0.2982,0.2982,0.2973,0,0,0.2981,0.2981,0,0,0,0,0,0,0,0,0.2717,0.2727,0.2831,0.2836,0.2843,0.2927,0.2857,0.2926,0.2973,0.2923,0.2974,0.2974,0.2954,0.2956,0.2977,0.2973,0.2973,0.2981,0.2981,0.2981,0.2981,0,0,0,0,0,0,0,0.2711,0.2723,0.2835,0.2832,0.284,0.2861,0.2873,0.2871,0.2932,0.2928,0.2933,0.2948,0.2956,0.2977,0.2977,0.2974,0.2981,0.2981,0.2981,0.2981,0.3029,0.303,0,0,0,0,0,0,0.2699,0.2717,0.2832,0.2839,0.2781,0.2864,0.2877,0.2899,0.2934,0.2941,0.2947,0.295,0.2977,0.2977,0.2977,0.302,0.2981,0.2981,0.2981,0.3028,0.3029,0.3031,0,0,0,0,0,0,0.2695,0.2708,0.2827,0.2781,0.2798,0.2866,0.2889,0.2901,0.2928,0.2951,0.2956,0.2963,0.2977,0.2978,0.3007,0.3019,0.2981,0.2981,0.3026,0.3028,0.303,0.3072,0,0,0,0,0,0,0.269,0.2706,0.2712,0.2781,0.28,0.2869,0.2889,0.2903,0.2937,0.2942,0.2965,0.2967,0.2978,0.3007,0.3007,0.3018,0.2981,0.3025,0.3027,0.303,0.3069,0.3075,0.308,0,0,0,0,0,0.2684,0.2695,0.2712,0.2726,0.2809,0.2869,0.2881,0.2929,0.2937,0.2953,0.2985,0.2966,0.3022,0.3009,0.3008,0.3019,0.3023,0.3027,0.3029,0.3066,0.3074,0.308,0,0,0,0,0,0,0.263,0.2705,0.2725,0.2757,0.281,0.2881,0.2895,0.2927,0.2966,0.2964,0.2985,0.299,0.302,0.3014,0.2999,0.3042,0.3018,0.3021,0.3046,0.3053,0.3059,0.3031,0.2981,0,0,0,0,0,0.2621,0.2648,0.2721,0.2744,0.2767,0.2828,0.2855,0.289,0.2936,0.2954,0.2975,0.2998,0.3031,0.3038,0.3057,0.3073,0.3085,0.3081,0.3086,0.3091,0.3069,0.3123,0.3131,0.3041,0.3041,0.3041,0,0,0.2603,0.2648,0.2662,0.2734,0.2772,0.2812,0.2845,0.2886,0.2918,0.2944,0.298,0.3014,0.3041,0.3079,0.3089,0.3074,0.313,0.3095,0.3099,0.3074,0.3127,0.3135,0.3143,0.3043,0.3042,0.3042,0,0,0.2586,0.2622,0.2641,0.2687,0.275,0.2792,0.2803,0.2873,0.2903,0.2946,0.2985,0.3028,0.3058,0.3098,0.3118,0.3159,0.3162,0.3166,0.3167,0.322,0.3228,0.3234,0.3289,0.33,0.3166,0.3166,0.3166,0,0.2561,0.2601,0.2654,0.2688,0.272,0.2781,0.2808,0.2852,0.2924,0.2944,0.2954,0.3045,0.3065,0.3132,0.3157,0.3168,0.3203,0.314,0.3227,0.3234,0.324,0.3294,0.3306,0.3168,0.3168,0.3167,0.3167,0,0.2573,0.2598,0.261,0.2674,0.2714,0.2746,0.2815,0.2849,0.2883,0.2929,0.2994,0.3052,0.3104,0.313,0.3154,0.3219,0.3234,0.3233,0.3207,0.3251,0.3306,0.3318,0.3171,0.3171,0.317,0.3169,0,0,0.2537,0.2603,0.2608,0.2624,0.2708,0.274,0.2787,0.285,0.288,0.2946,0.2995,0.3071,0.3107,0.3133,0.3186,0.3233,0.3322,0.325,0.3252,0.3299,0.3454,0.3486,0.3501,0.3348,0.335,0.3351,0.3486,0,0.2529,0.2566,0.2612,0.2642,0.2664,0.2729,0.277,0.2832,0.2887,0.2948,0.302,0.308,0.3111,0.315,0.3208,0.3295,0.3349,0.3285,0.3406,0.3409,0.3428,0.3514,0.3472,0.359,0.3497,0.3498,0.35,0,0.2537,0.2557,0.2579,0.262,0.2636,0.2665,0.2733,0.2781,0.2878,0.2921,0.3,0.3064,0.3164,0.3173,0.3332,0.3298,0.3369,0.3428,0.3435,0.3446,0.3461,0.3526,0.3614,0.347,0.3517,0.3516,0.3514,0,0.2494,0.2535,0.2542,0.2563,0.2627,0.2641,0.2677,0.2765,0.2802,0.2908,0.2949,0.3074,0.3142,0.3252,0.3383,0.3366,0.3553,0.3542,0.3637,0.364,0.3614,0.3612,0.3565,0.3635,0.3635,0.3635,0.3634,0,0.2481,0.2474,0.2516,0.2526,0.2534,0.2594,0.2624,0.2681,0.2766,0.2822,0.293,0.301,0.3163,0.3294,0.34,0.3571,0.3573,0.3649,0.3683,0.3632,0.363,0.3509,0.3415,0.364,0.3639,0.3638,0.3637,0,0.2418,0.2453,0.246,0.2507,0.2517,0.2524,0.2578,0.2606,0.2691,0.2773,0.2805,0.2972,0.3159,0.3321,0.3513,0.3592,0.3654,0.3793,0.3727,0.375,0.3692,0.3603,0.3508,0.3415,0.3921,0.3923,0.3924,0,0.2371,0.2376,0.243,0.2435,0.2446,0.2463,0.2483,0.2564,0.2605,0.2759,0.2803,0.2992,0.3153,0.3459,0.3652,0.3867,0.3709,0.3904,0.3851,0.3692,0.3617,0.3463,0.3377,0.3847,0.3847,0.3848,0.3848,0,0.2272,0.2309,0.2321,0.2351,0.2368,0.2386,0.2421,0.2443,0.2558,0.2637,0.2786,0.2921,0.3263,0.3476,0.3747,0.3881,0.3714,0.3922,0.3772,0.3566,0.3378,0.3303,0.3748,0.3853,0.3852,0.3852,0.3852,0.3852,0.2176,0.2177,0.222,0.2237,0.2266,0.2288,0.228,0.2354,0.2415,0.2532,0.2717,0.289,0.322,0.3627,0.3751,0.3865,0.3778,0.379,0.3706,0.3571,0.343,0.3888,0.4017,0.4017,0.4017,0.4018,0.4018,0,0.2038,0.2068,0.2091,0.2114,0.2114,0.2178,0.2218,0.2212,0.2266,0.2441,0.2587,0.2871,0.3135,0.3405,0.3681,0.3635,0.353,0.3524,0.3263,0.3199,0.3643,0.3587,0.3608,0.3608,0.3608,0.3608,0.3608,0.3608,0.1961,0.1947,0.1984,0.1949,0.1973,0.195,0.1965,0.2004,0.2096,0.223,0.2374,0.2556,0.2908,0.3212,0.3323,0.3317,0.3043,0.2982,0.2875,0.315,0.3166,0.3181,0.3105,0.3025,0.3024,0.238,0.2375,0.2371]},{"header":{"parameterUnit":"m.s-1","parameterCategory":2,"la1":30.2991,"la2":30.254,"lo1":-89.0895,"lo2":-89.0444,"dy":0.0017,"dx":0.0017,"nx":28,"ny":28,"refTime":"2024-08-06T03:00:00:Z","depth":"0","parameterNumber":3,"parameterNumberName":"V-component_of_CURRENTS"},"data":[0,0,0,0,0,0,0,0,0,0,0,0,0,0,0,0,0,0,0,0,0,0,0,0,0,0,0,0,0,0,0,0,0,0,0,0,0,0,0,0,0,0,0,0,0,0,0,0,0,0,0,0,0,0,0,0,0,0,-0.0288,-0.029,0,-0.042,-0.0422,-0.0423,-0.0514,-0.0515,-0.0516,-0.0516,-0.0689,-0.0693,-0.0697,0,0,0,0,0,0,0,0,0,0,0,0,0,-0.0178,-0.0179,-0.0288,-0.029,-0.0291,-0.042,-0.0422,-0.0424,-0.0514,-0.0515,-0.0516,-0.0516,-0.0688,-0.0693,-0.0698,0,0,0,0,0,0,0,0,0,0,0,0,0,-0.026,-0.018,-0.0288,-0.0351,-0.0358,-0.0419,-0.0422,-0.0424,-0.0514,-0.0515,-0.0516,-0.0517,-0.0686,-0.0692,-0.0698,-0.0719,0,0,-0.0717,-0.072,0,0,0,0,0,0,0,0,-0.0255,-0.0264,-0.034,-0.0347,-0.0355,-0.0451,-0.0447,-0.0524,-0.0514,-0.0456,-0.0516,-0.0517,-0.0612,-0.0624,-0.0648,-0.0727,-0.0734,-0.0718,-0.0721,-0.0724,-0.0726,0,0,0,0,0,0,0,-0.0249,-0.026,-0.0341,-0.0342,-0.0351,-0.0395,-0.0407,-0.0462,-0.0529,-0.0461,-0.0468,-0.048,-0.0617,-0.0642,-0.0653,-0.0737,-0.0717,-0.0723,-0.0727,-0.0729,-0.0854,-0.0854,0,0,0,0,0,0,-0.0227,-0.0254,-0.0337,-0.0345,-0.0305,-0.0395,-0.0409,-0.042,-0.0528,-0.0545,-0.048,-0.0484,-0.0631,-0.0646,-0.0659,-0.0687,-0.0724,-0.073,-0.0733,-0.0855,-0.0854,-0.0854,0,0,0,0,0,0,-0.0224,-0.0233,-0.0332,-0.0302,-0.0317,-0.0396,-0.0408,-0.0422,-0.0449,-0.0541,-0.0559,-0.0491,-0.0632,-0.0651,-0.0716,-0.0695,-0.0732,-0.0738,-0.0855,-0.0855,-0.0854,-0.0744,0,0,0,0,0,0,-0.022,-0.0231,-0.0228,-0.03,-0.0318,-0.0359,-0.0407,-0.0424,-0.0455,-0.0462,-0.0557,-0.0574,-0.0635,-0.0707,-0.0722,-0.0704,-0.0743,-0.0855,-0.0855,-0.0854,-0.0748,-0.074,-0.0733,0,0,0,0,0,-0.0216,-0.0208,-0.0227,-0.0237,-0.0313,-0.0359,-0.0372,-0.0432,-0.0454,-0.046,-0.0533,-0.0571,-0.0713,-0.0712,-0.073,-0.0713,-0.0856,-0.0855,-0.0854,-0.0751,-0.0741,-0.0733,0,0,0,0,0,0,-0.0166,-0.0218,-0.0241,-0.0252,-0.0296,-0.0374,-0.0381,-0.0422,-0.0483,-0.049,-0.0578,-0.06,-0.065,-0.0697,-0.0694,-0.0747,-0.0786,-0.0789,-0.0702,-0.0693,-0.0685,-0.0657,-0.0748,0,0,0,0,0,-0.0149,-0.0154,-0.0216,-0.0223,-0.0237,-0.0305,-0.033,-0.037,-0.0434,-0.0461,-0.0529,-0.0598,-0.066,-0.0689,-0.0753,-0.0782,-0.082,-0.0781,-0.0773,-0.0766,-0.0756,-0.0803,-0.0798,-0.0851,-0.0851,-0.0851,0,0,-0.0134,-0.0161,-0.0167,-0.0212,-0.0248,-0.0266,-0.0322,-0.035,-0.0371,-0.047,-0.0514,-0.058,-0.0665,-0.0705,-0.0728,-0.0741,-0.0768,-0.0765,-0.0758,-0.0752,-0.0801,-0.0796,-0.0791,-0.0851,-0.0851,-0.0851,0,0,-0.0103,-0.0124,-0.0117,-0.0144,-0.0187,-0.023,-0.0231,-0.03,-0.0332,-0.0383,-0.0459,-0.0508,-0.0603,-0.0652,-0.0691,-0.0677,-0.0733,-0.0695,-0.0626,-0.0671,-0.0667,-0.0663,-0.0686,-0.0686,-0.0682,-0.0681,-0.0681,0,-0.0086,-0.0086,-0.0124,-0.0123,-0.0138,-0.0205,-0.0205,-0.0246,-0.0331,-0.0353,-0.0382,-0.0509,-0.0573,-0.0622,-0.0616,-0.0656,-0.069,-0.0651,-0.0659,-0.0657,-0.0655,-0.068,-0.0681,-0.0676,-0.0677,-0.0677,-0.0678,0,-0.0057,-0.0052,-0.0046,-0.0067,-0.0086,-0.0095,-0.015,-0.0175,-0.0218,-0.0268,-0.0325,-0.0412,-0.0485,-0.0505,-0.0558,-0.0575,-0.0605,-0.0649,-0.0675,-0.0642,-0.0671,-0.0674,-0.0668,-0.067,-0.0672,-0.0673,0,0,-0.0036,-0.0029,-0.0029,-0.002,-0.0055,-0.0072,-0.0085,-0.0126,-0.014,-0.0206,-0.0228,-0.0315,-0.0359,-0.0406,-0.0472,-0.0499,-0.0508,-0.0556,-0.0561,-0.0565,-0.0595,-0.0593,-0.0597,-0.0558,-0.0558,-0.0558,-0.0612,0,-0.0007,0.0012,0.0008,0.0025,0.0032,-0.0007,-0.0015,-0.0057,-0.0104,-0.0142,-0.0213,-0.0268,-0.0324,-0.0354,-0.0389,-0.0493,-0.0514,-0.0488,-0.0638,-0.0642,-0.0634,-0.06,-0.0518,-0.0557,-0.0615,-0.0616,-0.0616,0,0.0019,0.003,0.0054,0.0076,0.0076,0.0075,0.0053,0.0038,-0.002,-0.0053,-0.0104,-0.0178,-0.0233,-0.0285,-0.0409,-0.0394,-0.0476,-0.0544,-0.0549,-0.0589,-0.0646,-0.0606,-0.0562,-0.0723,-0.0622,-0.0621,-0.0621,0,0.0038,0.0066,0.0086,0.0089,0.0094,0.0104,0.0102,0.0062,0.0053,0.0002,-0.0011,-0.0102,-0.0148,-0.0257,-0.039,-0.0408,-0.0522,-0.0573,-0.0643,-0.0644,-0.0622,-0.062,-0.0739,-0.0647,-0.0647,-0.0647,-0.0647,0,0.0068,0.0096,0.0099,0.0109,0.0137,0.0137,0.0155,0.0138,0.0117,0.0118,0.0037,0.0025,-0.0145,-0.0235,-0.036,-0.0497,-0.0502,-0.0617,-0.0656,-0.058,-0.0574,-0.0756,-0.0833,-0.0649,-0.0649,-0.0648,-0.0648,0,0.0113,0.0104,0.0135,0.0145,0.0149,0.0171,0.0195,0.0209,0.0189,0.0191,0.0182,0.0105,0.0009,-0.0152,-0.0328,-0.0453,-0.065,-0.0637,-0.0523,-0.0547,-0.0768,-0.084,-0.0977,-0.1019,-0.0724,-0.0724,-0.0724,0,0.0138,0.0154,0.0161,0.0174,0.0189,0.0218,0.0239,0.0234,0.0259,0.025,0.0266,0.0182,0.0158,-0.0081,-0.0289,-0.0487,-0.0641,-0.059,-0.0612,-0.0755,-0.0865,-0.0922,-0.0951,-0.0536,-0.0534,-0.0533,-0.0532,0,0.0193,0.019,0.0217,0.0242,0.0261,0.0294,0.0337,0.0362,0.037,0.0398,0.0441,0.0429,0.0231,0.0086,-0.02,-0.0352,-0.0657,-0.0576,-0.0758,-0.0746,-0.078,-0.0846,-0.0523,-0.0522,-0.0523,-0.0524,-0.0525,-0.0525,0.0231,0.0262,0.0282,0.0321,0.0354,0.0401,0.0456,0.0523,0.0593,0.0699,0.0632,0.0709,0.0429,0.0084,-0.0169,-0.0574,-0.0597,-0.0709,-0.0788,-0.0837,-0.0866,-0.051,-0.054,-0.0541,-0.0542,-0.0543,-0.0544,0,0.0257,0.0303,0.0356,0.0402,0.0477,0.0463,0.0548,0.0642,0.0786,0.0893,0.0978,0.0923,0.0585,0.0183,-0.0366,-0.0714,-0.0826,-0.0925,-0.099,-0.1014,-0.0723,-0.0705,-0.073,-0.073,-0.0729,-0.0729,-0.0729,-0.0729,0.0267,0.0327,0.0368,0.0497,0.0552,0.0661,0.0721,0.0882,0.1013,0.1229,0.1327,0.1342,0.1024,-0.004,-0.0802,-0.0987,-0.1212,-0.1253,-0.1415,-0.1232,-0.1219,-0.1206,-0.121,-0.1341,-0.1341,-0.1627,-0.163,-0.1633]}],[{"header":{"parameterUnit":"m.s-1","parameterCategory":2,"la1":30.2991,"la2":30.254,"lo1":-89.0895,"lo2":-89.0444,"dy":0.0017,"dx":0.0017,"nx":28,"ny":28,"refTime":"2024-08-06T03:00:00:Z","depth":"2","parameterNumber":2,"parameterNumberName":"U-component_of_CURRENTS"},"data":[0,0,0,0,0,0,0,0,0,0,0,0,0,0,0,0,0,0,0,0,0,0,0,0,0,0,0,0,0,0,0,0,0,0,0,0,0,0,0,0,0,0,0,0,0,0,0,0,0,0,0,0,0,0,0,0,0,0,0.1386,0.1386,0,0.1439,0.144,0.144,0.1534,0.1536,0.1537,0.1539,0.1688,0.169,0.1693,0,0,0,0,0,0,0,0,0,0,0,0,0,0.1342,0.1342,0.1386,0.1386,0.1387,0.1439,0.144,0.1441,0.1534,0.1536,0.1538,0.154,0.1687,0.169,0.1693,0,0,0,0,0,0,0,0,0,0,0,0,0,0.1376,0.1342,0.1385,0.1439,0.1444,0.1439,0.144,0.1441,0.1533,0.1536,0.1538,0.154,0.1686,0.169,0.1693,0.1666,0,0,0.1704,0.1706,0,0,0,0,0,0,0,0,0.1374,0.1377,0.143,0.1435,0.1441,0.1481,0.1479,0.1521,0.1533,0.15,0.1539,0.1542,0.1625,0.1634,0.1639,0.1673,0.1679,0.1705,0.1707,0.1708,0.171,0,0,0,0,0,0,0,0.1371,0.1375,0.1408,0.1431,0.1437,0.1452,0.146,0.1487,0.1551,0.1503,0.151,0.1513,0.1629,0.1635,0.1643,0.1682,0.1705,0.1708,0.171,0.1712,0.1804,0.1805,0,0,0,0,0,0,0.1361,0.1373,0.1406,0.1409,0.1411,0.1451,0.146,0.1467,0.1549,0.1562,0.1511,0.1517,0.1627,0.1639,0.1649,0.1731,0.1708,0.1712,0.1714,0.1804,0.1804,0.1805,0,0,0,0,0,0,0.1359,0.1363,0.1404,0.1391,0.1398,0.1449,0.1456,0.1466,0.1508,0.1553,0.157,0.1546,0.163,0.1644,0.1695,0.1734,0.1714,0.1717,0.1804,0.1804,0.1805,0.1826,0,0,0,0,0,0,0.1358,0.1362,0.138,0.1391,0.1398,0.1426,0.1454,0.1466,0.1503,0.1513,0.1587,0.1602,0.1633,0.1689,0.1699,0.1739,0.172,0.1803,0.1804,0.1804,0.1825,0.1827,0.1829,0,0,0,0,0,0.1356,0.1363,0.1381,0.1386,0.1416,0.1426,0.1432,0.1477,0.1502,0.1523,0.1567,0.1601,0.17,0.1692,0.1703,0.1745,0.1803,0.1804,0.1804,0.1824,0.1827,0.1829,0,0,0,0,0,0,0.1352,0.1372,0.1393,0.1407,0.1428,0.1442,0.1466,0.1486,0.1533,0.1554,0.1599,0.1616,0.1676,0.1695,0.1685,0.177,0.1759,0.1762,0.177,0.1773,0.1775,0.1785,0.1723,0,0,0,0,0,0.1356,0.1371,0.139,0.1404,0.1418,0.1445,0.1461,0.1486,0.1517,0.1543,0.1594,0.1641,0.1677,0.1714,0.1746,0.1789,0.1836,0.1823,0.1825,0.1827,0.184,0.1921,0.1932,0.1807,0.1807,0.1807,0,0,0.1357,0.137,0.1381,0.1405,0.1428,0.1446,0.1463,0.1491,0.1514,0.1549,0.1615,0.165,0.1686,0.1738,0.1768,0.1769,0.189,0.1828,0.1829,0.1842,0.1923,0.1935,0.1947,0.1807,0.1807,0.1807,0,0,0.1359,0.1382,0.1402,0.1414,0.1447,0.146,0.1473,0.1507,0.1543,0.1578,0.1619,0.1675,0.1726,0.1774,0.1796,0.1823,0.189,0.184,0.1875,0.1952,0.1964,0.1975,0.2067,0.2086,0.1851,0.1851,0.1851,0,0.1377,0.1392,0.1408,0.1424,0.1445,0.147,0.1496,0.1514,0.1563,0.1607,0.1606,0.1715,0.1741,0.1823,0.183,0.1833,0.1894,0.1865,0.1958,0.197,0.1981,0.2072,0.2093,0.1852,0.1852,0.1852,0.1852,0,0.139,0.1408,0.1418,0.1453,0.1471,0.1494,0.1518,0.156,0.1595,0.1629,0.1719,0.1751,0.1829,0.1839,0.1839,0.1939,0.1964,0.1946,0.1957,0.1995,0.2089,0.211,0.1854,0.1853,0.1853,0.1853,0,0,0.1427,0.1435,0.1444,0.1464,0.1494,0.1511,0.1551,0.1614,0.1677,0.1714,0.1808,0.1845,0.1891,0.1918,0.1947,0.2004,0.2121,0.2011,0.2015,0.2113,0.2325,0.2248,0.2264,0.213,0.2134,0.2136,0.2366,0,0.1455,0.1482,0.1484,0.1519,0.1538,0.1569,0.1613,0.1667,0.1721,0.1814,0.1862,0.1945,0.1912,0.1968,0.202,0.2101,0.2176,0.2062,0.2264,0.2271,0.2206,0.2285,0.2014,0.2188,0.2387,0.2391,0.2393,0,0.1474,0.1493,0.1531,0.1568,0.1589,0.1617,0.172,0.1758,0.1867,0.1921,0.2008,0.2049,0.2152,0.2102,0.2271,0.2209,0.2271,0.2317,0.2327,0.2263,0.2233,0.2178,0.2219,0.2429,0.2426,0.2424,0.2421,0,0.1483,0.1523,0.156,0.1569,0.1619,0.1666,0.1713,0.181,0.1861,0.2004,0.2066,0.219,0.2263,0.2352,0.2422,0.2372,0.2609,0.2552,0.2551,0.2548,0.2359,0.2332,0.2679,0.2678,0.2678,0.2677,0.2677,0,0.149,0.1508,0.1573,0.1584,0.1645,0.1694,0.1779,0.1845,0.1964,0.2043,0.2128,0.2208,0.2325,0.2447,0.2502,0.2606,0.2683,0.2587,0.2607,0.2358,0.2329,0.2555,0.2538,0.2686,0.2684,0.2682,0.2681,0,0.144,0.1489,0.1517,0.1604,0.163,0.1673,0.1763,0.1833,0.1958,0.2065,0.2111,0.2264,0.2434,0.2554,0.2733,0.2704,0.2812,0.2828,0.2535,0.2513,0.2684,0.2665,0.2859,0.2859,0.2858,0.2858,0.2857,0,0.1401,0.142,0.1502,0.1517,0.1546,0.1618,0.167,0.1806,0.1881,0.2077,0.2133,0.2331,0.2437,0.2682,0.2674,0.2794,0.2887,0.2631,0.2453,0.2706,0.2707,0.2688,0.267,0.2235,0.2229,0.2225,0.2221,0,0.1319,0.1364,0.1391,0.143,0.1483,0.1522,0.1619,0.1675,0.1855,0.1964,0.2119,0.2221,0.2408,0.2393,0.2537,0.2553,0.258,0.2541,0.2924,0.2206,0.2128,0.2124,0.2126,0.2181,0.2185,0.2188,0.219,0.2192,0.1249,0.1249,0.1303,0.1332,0.138,0.1419,0.1456,0.1576,0.1684,0.1817,0.197,0.2068,0.2086,0.2142,0.2169,0.2217,0.235,0.2275,0.2285,0.23,0.2162,0.2084,0.2106,0.211,0.2113,0.2115,0.2118,0,0.1159,0.1176,0.1194,0.1236,0.1257,0.1318,0.1417,0.1471,0.1582,0.1659,0.1759,0.1633,0.1644,0.1792,0.1743,0.1756,0.1695,0.1775,0.1661,0.17,0.1735,0.1564,0.1352,0.1351,0.1349,0.1348,0,0,0.1114,0.1105,0.1129,0.1123,0.1152,0.121,0.1261,0.1322,0.14,0.1401,0.1417,0.1439,0.1614,0.1377,0.1378,0.1391,0.1535,0.1352,0.1948,0.1843,0.1876,0.1993,0.177,0,0,0,0,0]},{"header":{"parameterUnit":"m.s-1","parameterCategory":2,"la1":30.2991,"la2":30.254,"lo1":-89.0895,"lo2":-89.0444,"dy":0.0017,"dx":0.0017,"nx":28,"ny":28,"refTime":"2024-08-06T03:00:00:Z","depth":"2","parameterNumber":3,"parameterNumberName":"V-component_of_CURRENTS"},"data":[0,0,0,0,0,0,0,0,0,0,0,0,0,0,0,0,0,0,0,0,0,0,0,0,0,0,0,0,0,0,0,0,0,0,0,0,0,0,0,0,0,0,0,0,0,0,0,0,0,0,0,0,0,0,0,0,0,0,0.0203,0.0201,0,-0.0014,-0.0017,-0.002,-0.0185,-0.0186,-0.0187,-0.0189,-0.0445,-0.0451,-0.0456,0,0,0,0,0,0,0,0,0,0,0,0,0,0.0353,0.0352,0.0204,0.0201,0.0199,-0.0014,-0.0017,-0.002,-0.0184,-0.0186,-0.0188,-0.0189,-0.0443,-0.045,-0.0457,0,0,0,0,0,0,0,0,0,0,0,0,0,0.0225,0.0351,0.0204,0.0093,0.0081,-0.0013,-0.0017,-0.0021,-0.0184,-0.0186,-0.0188,-0.019,-0.0441,-0.0449,-0.0458,-0.0471,0,0,-0.0483,-0.0487,0,0,0,0,0,0,0,0,0.0233,0.022,0.0112,0.01,0.0087,-0.0072,-0.0059,-0.0173,-0.0184,-0.0086,-0.0189,-0.0191,-0.0321,-0.0339,-0.0379,-0.0483,-0.0494,-0.0484,-0.0489,-0.0493,-0.0495,0,0,0,0,0,0,0,0.0242,0.0227,0.0115,0.0109,0.0094,0.0011,-0.0008,-0.0082,-0.0192,-0.0095,-0.0107,-0.0127,-0.0329,-0.037,-0.0386,-0.0497,-0.0484,-0.0491,-0.0497,-0.05,-0.0675,-0.0674,0,0,0,0,0,0,0.0282,0.0237,0.0122,0.0109,0.0159,0.0011,-0.0011,-0.0021,-0.0191,-0.0218,-0.0125,-0.0133,-0.0355,-0.0376,-0.0396,-0.0454,-0.0493,-0.0501,-0.0505,-0.0675,-0.0674,-0.0674,0,0,0,0,0,0,0.0287,0.0275,0.0131,0.0169,0.0145,0.0012,0.0001,-0.0024,-0.0087,-0.0213,-0.0242,-0.0163,-0.0357,-0.0384,-0.0483,-0.0464,-0.0504,-0.0512,-0.0675,-0.0675,-0.0674,-0.055,0,0,0,0,0,0,0.0292,0.0278,0.0274,0.0172,0.0144,0.0075,0.0002,-0.0027,-0.0094,-0.0108,-0.0255,-0.028,-0.0361,-0.047,-0.0491,-0.0476,-0.0519,-0.0676,-0.0675,-0.0674,-0.0554,-0.0545,-0.0537,0,0,0,0,0,0.0298,0.0303,0.0275,0.026,0.0147,0.0075,0.0053,-0.0051,-0.0093,-0.0115,-0.0222,-0.0276,-0.0479,-0.0477,-0.0502,-0.0489,-0.0676,-0.0675,-0.0675,-0.0558,-0.0547,-0.0537,0,0,0,0,0,0,0.0356,0.0284,0.0251,0.0231,0.0161,0.0048,0.0015,-0.0046,-0.0148,-0.0166,-0.0286,-0.0319,-0.0397,-0.0459,-0.0453,-0.0536,-0.058,-0.0584,-0.0483,-0.0473,-0.0464,-0.0415,-0.0526,0,0,0,0,0,0.0376,0.0365,0.0279,0.0263,0.0233,0.0128,0.0082,0.0019,-0.0078,-0.0126,-0.0227,-0.0326,-0.0407,-0.0454,-0.054,-0.0587,-0.0619,-0.059,-0.0582,-0.0574,-0.055,-0.0598,-0.059,-0.0671,-0.0671,-0.0671,0,0,0.0394,0.0354,0.0345,0.0275,0.0211,0.0181,0.0094,0.0035,0.0006,-0.0134,-0.0211,-0.0307,-0.0416,-0.0478,-0.0515,-0.0531,-0.0564,-0.0572,-0.0565,-0.0545,-0.0596,-0.0588,-0.058,-0.067,-0.067,-0.0671,0,0,0.0432,0.0393,0.0394,0.035,0.0271,0.0212,0.0202,0.0092,0.0036,-0.0041,-0.0145,-0.0227,-0.0357,-0.0425,-0.0475,-0.0465,-0.0522,-0.049,-0.0401,-0.0447,-0.044,-0.0435,-0.0441,-0.0437,-0.0477,-0.0477,-0.0477,0,0.0451,0.0445,0.0381,0.037,0.0341,0.0238,0.0231,0.0169,0.004,0.0012,-0.0048,-0.0221,-0.0323,-0.0379,-0.0384,-0.0442,-0.0466,-0.0431,-0.0433,-0.0428,-0.0425,-0.0433,-0.043,-0.0471,-0.0471,-0.0472,-0.0473,0,0.0488,0.0479,0.0476,0.0439,0.0405,0.0379,0.0302,0.0255,0.0182,0.0122,0.004,-0.01,-0.0198,-0.0237,-0.0316,-0.0334,-0.0358,-0.0421,-0.0451,-0.0408,-0.042,-0.0419,-0.0462,-0.0464,-0.0466,-0.0467,0,0,0.0534,0.0508,0.0505,0.0508,0.0439,0.0418,0.039,0.0338,0.0336,0.0217,0.0202,0.0054,-0.0018,-0.0078,-0.0182,-0.0219,-0.0225,-0.0297,-0.0303,-0.0285,-0.0293,-0.0274,-0.0272,-0.0291,-0.0291,-0.0291,-0.0302,0,0.0572,0.059,0.0561,0.0576,0.0576,0.0505,0.0497,0.0447,0.0386,0.0348,0.023,0.0159,0.0044,-0.001,-0.0062,-0.0198,-0.0221,-0.0214,-0.0352,-0.0355,-0.033,-0.027,-0.0317,-0.0328,-0.0301,-0.0301,-0.0301,0,0.0612,0.062,0.0648,0.0656,0.0651,0.065,0.0633,0.061,0.0551,0.0505,0.0432,0.0325,0.0234,0.0127,-0.0029,-0.0021,-0.0136,-0.0227,-0.0231,-0.0253,-0.0334,-0.0375,-0.0329,-0.0301,-0.0301,-0.0301,-0.0301,0,0.0676,0.0683,0.0715,0.0712,0.0701,0.0708,0.0694,0.0658,0.0649,0.0597,0.0586,0.0468,0.039,0.0242,0.0037,-0.0004,-0.0109,-0.02,-0.0274,-0.0273,-0.0358,-0.0364,-0.0285,-0.0285,-0.0285,-0.0285,-0.0285,0,0.0723,0.075,0.0751,0.0766,0.0814,0.0782,0.0813,0.0795,0.0768,0.0778,0.0664,0.0651,0.041,0.0301,0.0116,-0.005,-0.0055,-0.0226,-0.027,-0.0313,-0.0315,-0.0342,-0.0349,-0.0285,-0.0285,-0.0285,-0.0285,0,0.0776,0.0776,0.0822,0.0836,0.0844,0.0875,0.0873,0.0883,0.0872,0.0881,0.086,0.0777,0.065,0.0441,0.0214,0.0056,-0.0113,-0.0174,-0.0179,-0.0223,-0.0263,-0.0263,-0.0251,-0.025,-0.025,-0.0249,-0.0249,0,0.0791,0.0822,0.0876,0.0905,0.0909,0.0936,0.0938,0.0924,0.0931,0.096,0.0966,0.0885,0.0824,0.0561,0.0243,-0.0024,-0.0054,-0.0199,-0.0293,-0.0212,-0.0257,-0.0258,-0.0259,-0.0356,-0.0357,-0.0357,-0.0357,0,0.0815,0.0847,0.0883,0.0955,0.0978,0.1022,0.1031,0.1065,0.1052,0.1084,0.1139,0.1118,0.0848,0.0553,0.0212,0.0029,-0.016,-0.0213,-0.0141,-0.0344,-0.0309,-0.0354,-0.0352,-0.0361,-0.0361,-0.036,-0.036,-0.036,0.0822,0.086,0.0916,0.0983,0.1028,0.1109,0.1131,0.1164,0.1226,0.1226,0.1231,0.1147,0.0798,0.0309,0.0065,-0.0181,-0.0189,-0.0312,-0.0312,-0.0312,-0.0309,-0.0273,-0.0316,-0.0315,-0.0315,-0.0314,-0.0314,0,0.0802,0.0851,0.0926,0.1012,0.1069,0.1097,0.1171,0.1201,0.1274,0.1238,0.1228,0.0907,0.0583,0.0282,-0.013,-0.036,-0.0402,-0.0379,-0.0423,-0.0418,-0.0415,-0.0418,-0.0454,-0.0455,-0.0455,-0.0455,0,0,0.079,0.0844,0.0894,0.1,0.1062,0.1122,0.1165,0.1264,0.1271,0.1258,0.1129,0.0874,0.0552,0.0203,-0.0098,-0.0259,-0.0271,-0.0279,-0.0156,-0.0171,-0.0164,-0.0378,-0.0378,0,0,0,0,0]}],[{"header":{"parameterUnit":"m.s-1","parameterCategory":2,"la1":30.2991,"la2":30.254,"lo1":-89.0895,"lo2":-89.0444,"dy":0.0017,"dx":0.0017,"nx":28,"ny":28,"refTime":"2024-08-06T03:00:00:Z","depth":"4","parameterNumber":2,"parameterNumberName":"U-component_of_CURRENTS"},"data":[0,0,0,0,0,0,0,0,0,0,0,0,0,0,0,0,0,0,0,0,0,0,0,0,0,0,0,0,0,0,0,0,0,0,0,0,0,0,0,0,0,0,0,0,0,0,0,0,0,0,0,0,0,0,0,0,0,0,0.0347,0.0348,0,0.0406,0.0406,0.0407,0.045,0.0451,0.0452,0.0452,0.0436,0.0435,0.0433,0,0,0,0,0,0,0,0,0,0,0,0,0,0.0256,0.0258,0.0347,0.0348,0.035,0.0406,0.0406,0.0407,0.045,0.0451,0.0452,0.0453,0.0436,0.0435,0.0433,0,0,0,0,0,0,0,0,0,0,0,0,0,0.03,0.0258,0.0347,0.0381,0.0384,0.0406,0.0406,0.0407,0.045,0.0451,0.0452,0.0453,0.0436,0.0435,0.0433,0.0401,0,0,0.0428,0.0427,0,0,0,0,0,0,0,0,0.0298,0.0303,0.0375,0.0378,0.0383,0.0425,0.0368,0.0403,0.045,0.0421,0.0453,0.0454,0.0427,0.0426,0.043,0.04,0.04,0.0428,0.0427,0.0426,0.0426,0,0,0,0,0,0,0,0.0295,0.0301,0.0367,0.0376,0.0381,0.0387,0.0394,0.0375,0.0413,0.0424,0.0428,0.044,0.0428,0.0432,0.043,0.04,0.0428,0.0426,0.0425,0.0425,0.0383,0.0383,0,0,0,0,0,0,0.0294,0.0298,0.0365,0.0369,0.0346,0.0388,0.0396,0.0407,0.0415,0.0419,0.0439,0.0442,0.0434,0.0432,0.043,0.0436,0.0426,0.0425,0.0424,0.0383,0.0383,0.0383,0,0,0,0,0,0,0.0292,0.03,0.0363,0.0338,0.0347,0.0389,0.0401,0.0408,0.0436,0.0428,0.043,0.0464,0.0435,0.0432,0.043,0.0434,0.0424,0.0422,0.0384,0.0383,0.0383,0.0419,0,0,0,0,0,0,0.0289,0.0298,0.0307,0.0338,0.0348,0.0389,0.0401,0.0409,0.0442,0.0447,0.0449,0.0448,0.0436,0.0433,0.0429,0.0431,0.0421,0.0384,0.0383,0.0383,0.0418,0.042,0.0422,0,0,0,0,0,0.0286,0.0292,0.0306,0.0315,0.0358,0.039,0.0396,0.0427,0.0443,0.0456,0.0457,0.0449,0.0429,0.0432,0.0426,0.0429,0.0384,0.0384,0.0383,0.0417,0.042,0.0422,0,0,0,0,0,0,0.0252,0.0299,0.0315,0.0334,0.0367,0.04,0.0414,0.0437,0.045,0.0456,0.0448,0.0446,0.0443,0.0429,0.0433,0.0415,0.0404,0.0403,0.0431,0.0434,0.0436,0.046,0.042,0,0,0,0,0,0.025,0.0267,0.0313,0.0326,0.0347,0.0384,0.0402,0.0428,0.0445,0.0454,0.0457,0.0449,0.0433,0.0431,0.0415,0.0407,0.0402,0.0403,0.0405,0.0407,0.0423,0.0411,0.0414,0.0383,0.0383,0.0383,0,0,0.0235,0.0266,0.0273,0.0321,0.0347,0.038,0.0397,0.0433,0.0457,0.0445,0.0469,0.0456,0.0432,0.0424,0.0422,0.0418,0.0414,0.0407,0.0409,0.0424,0.0411,0.0414,0.0417,0.0382,0.0382,0.0382,0,0,0.0222,0.025,0.0267,0.0303,0.0356,0.0381,0.0399,0.0446,0.0464,0.0484,0.0475,0.047,0.0458,0.0442,0.0429,0.043,0.0424,0.0424,0.0458,0.0445,0.0448,0.0451,0.0455,0.0457,0.0428,0.0428,0.0428,0,0.0206,0.024,0.0275,0.0311,0.0344,0.0387,0.0421,0.0441,0.048,0.0491,0.0497,0.0484,0.0465,0.0448,0.0456,0.0436,0.0439,0.0452,0.0449,0.0452,0.0454,0.0457,0.046,0.0429,0.0429,0.0429,0.0429,0,0.0212,0.025,0.0265,0.0326,0.036,0.0397,0.0442,0.0469,0.0498,0.0518,0.0525,0.0504,0.0505,0.0486,0.0477,0.0476,0.0477,0.0452,0.0448,0.0459,0.0462,0.0464,0.0432,0.0431,0.0431,0.043,0,0,0.0163,0.0252,0.0263,0.0304,0.0379,0.0411,0.0445,0.0491,0.0521,0.0539,0.0564,0.054,0.0552,0.0539,0.0519,0.0507,0.0522,0.05,0.0499,0.0514,0.0517,0.0538,0.0542,0.0503,0.0503,0.0504,0.0515,0,0.0166,0.023,0.0277,0.0342,0.0385,0.044,0.0472,0.0515,0.0546,0.0577,0.0561,0.0581,0.0564,0.0578,0.0562,0.0531,0.0529,0.0523,0.0496,0.0496,0.052,0.0545,0.0505,0.0517,0.0517,0.0517,0.0518,0,0.0166,0.0217,0.0281,0.0371,0.0396,0.0446,0.0519,0.0555,0.0596,0.0619,0.0638,0.0642,0.0642,0.0622,0.0595,0.0598,0.0576,0.0544,0.0543,0.0556,0.0521,0.0499,0.0521,0.0521,0.052,0.052,0.052,0,0.0123,0.0221,0.0275,0.031,0.0411,0.0458,0.0516,0.0575,0.061,0.0666,0.0695,0.0694,0.071,0.0675,0.0631,0.0629,0.0585,0.0565,0.056,0.0561,0.0521,0.0518,0.0549,0.0549,0.0549,0.0549,0.0549,0,0.0111,0.016,0.0275,0.0309,0.0389,0.0465,0.0543,0.0593,0.0658,0.0676,0.0732,0.0721,0.0728,0.0701,0.0651,0.0618,0.0605,0.0585,0.057,0.0536,0.0534,0.0523,0.052,0.0549,0.0549,0.0549,0.0549,0,0.0063,0.0131,0.02,0.0321,0.0376,0.0435,0.0574,0.0608,0.0692,0.0715,0.0741,0.077,0.0755,0.074,0.0682,0.066,0.0606,0.0588,0.0571,0.0551,0.0592,0.0591,0.062,0.0621,0.0622,0.0623,0.0623,0,0.0064,0.0091,0.0204,0.0251,0.0323,0.0434,0.0497,0.0612,0.0631,0.0696,0.0672,0.0726,0.0725,0.0685,0.0659,0.063,0.0607,0.0611,0.0605,0.062,0.0602,0.0599,0.0596,0.0625,0.0625,0.0625,0.0625,0,0.0068,0.0088,0.0127,0.0204,0.029,0.037,0.0463,0.0495,0.0577,0.0644,0.0641,0.0674,0.067,0.0664,0.068,0.062,0.0631,0.0619,0.0617,0.0612,0.0625,0.0606,0.0602,0.0628,0.0628,0.0628,0.0627,0,0.0077,0.0079,0.0112,0.0183,0.024,0.0292,0.0363,0.0417,0.0481,0.0569,0.0532,0.0579,0.062,0.0652,0.0605,0.0632,0.0636,0.0633,0.0631,0.0628,0.0628,0.0646,0.0659,0,0,0,0,0,0.0122,0.0104,0.0116,0.0177,0.0193,0.0251,0.0319,0.0375,0.0457,0.0456,0.0522,0.0512,0.0565,0.0568,0.0602,0.0597,0.0618,0.0634,0.0606,0.0644,0.0641,0.0642,0,0,0,0,0,0,0.0152,0.0139,0.0107,0.0137,0.0172,0.0216,0.0261,0.0316,0.0331,0.0412,0.0433,0.0513,0.0547,0.055,0.0599,0.0609,0.0593,0.0675,0.0676,0.0646,0.0643,0.064,0.0641,0,0,0,0,0]},{"header":{"parameterUnit":"m.s-1","parameterCategory":2,"la1":30.2991,"la2":30.254,"lo1":-89.0895,"lo2":-89.0444,"dy":0.0017,"dx":0.0017,"nx":28,"ny":28,"refTime":"2024-08-06T03:00:00:Z","depth":"4","parameterNumber":3,"parameterNumberName":"V-component_of_CURRENTS"},"data":[0,0,0,0,0,0,0,0,0,0,0,0,0,0,0,0,0,0,0,0,0,0,0,0,0,0,0,0,0,0,0,0,0,0,0,0,0,0,0,0,0,0,0,0,0,0,0,0,0,0,0,0,0,0,0,0,0,0,-0.0082,-0.0082,0,-0.014,-0.014,-0.0141,-0.0209,-0.021,-0.0211,-0.0212,-0.0313,-0.0315,-0.0317,0,0,0,0,0,0,0,0,0,0,0,0,0,-0.0048,-0.0048,-0.0082,-0.0082,-0.0083,-0.014,-0.0141,-0.0141,-0.0209,-0.021,-0.0211,-0.0212,-0.0312,-0.0315,-0.0317,0,0,0,0,0,0,0,0,0,0,0,0,0,-0.0081,-0.0048,-0.0082,-0.0122,-0.0126,-0.0139,-0.0141,-0.0142,-0.0209,-0.021,-0.0211,-0.0212,-0.0312,-0.0314,-0.0317,-0.0308,0,0,-0.0326,-0.0327,0,0,0,0,0,0,0,0,-0.0079,-0.0083,-0.0116,-0.0119,-0.0124,-0.0167,-0.0166,-0.0199,-0.0208,-0.0179,-0.0212,-0.0213,-0.0266,-0.0273,-0.0282,-0.0313,-0.0317,-0.0326,-0.0328,-0.0329,-0.033,0,0,0,0,0,0,0,-0.0077,-0.0081,-0.0106,-0.0116,-0.0121,-0.0144,-0.015,-0.0172,-0.0217,-0.0182,-0.0186,-0.019,-0.0269,-0.028,-0.0285,-0.0319,-0.0326,-0.0328,-0.033,-0.0331,-0.0425,-0.0426,0,0,0,0,0,0,-0.0064,-0.0078,-0.0105,-0.0108,-0.0103,-0.0143,-0.015,-0.0153,-0.0216,-0.0225,-0.0189,-0.0193,-0.0274,-0.0282,-0.0289,-0.0354,-0.0329,-0.0332,-0.0333,-0.0424,-0.0425,-0.0426,0,0,0,0,0,0,-0.0063,-0.0066,-0.0102,-0.0093,-0.0099,-0.0142,-0.0145,-0.0154,-0.019,-0.022,-0.0231,-0.0219,-0.0275,-0.0285,-0.0337,-0.0356,-0.0333,-0.0335,-0.0423,-0.0424,-0.0426,-0.0438,0,0,0,0,0,0,-0.0062,-0.0065,-0.0075,-0.0092,-0.0099,-0.0125,-0.0144,-0.0154,-0.0188,-0.0195,-0.0249,-0.0259,-0.0277,-0.0332,-0.0339,-0.0359,-0.0338,-0.0422,-0.0424,-0.0425,-0.0436,-0.0439,-0.0442,0,0,0,0,0,-0.006,-0.0066,-0.0075,-0.0078,-0.0107,-0.0125,-0.0132,-0.0167,-0.0188,-0.0205,-0.0248,-0.0258,-0.0347,-0.0335,-0.0343,-0.0365,-0.0421,-0.0423,-0.0425,-0.0435,-0.0439,-0.0442,0,0,0,0,0,0,-0.0058,-0.0073,-0.0084,-0.0095,-0.0115,-0.0137,-0.0156,-0.0177,-0.0223,-0.0237,-0.027,-0.0282,-0.0336,-0.0346,-0.0332,-0.0396,-0.0385,-0.0388,-0.039,-0.0393,-0.0396,-0.0395,-0.034,0,0,0,0,0,-0.0058,-0.0069,-0.0085,-0.0096,-0.0105,-0.0134,-0.015,-0.0172,-0.0206,-0.0229,-0.0267,-0.0307,-0.0343,-0.0366,-0.0398,-0.043,-0.0434,-0.0448,-0.0451,-0.0453,-0.0458,-0.0486,-0.0491,-0.0432,-0.0432,-0.0432,0,0,-0.0059,-0.007,-0.0076,-0.0097,-0.0115,-0.0137,-0.0149,-0.0176,-0.0206,-0.0231,-0.0293,-0.0322,-0.0355,-0.0398,-0.0421,-0.0413,-0.0469,-0.0455,-0.0457,-0.046,-0.0488,-0.0494,-0.0499,-0.0433,-0.0433,-0.0433,0,0,-0.0061,-0.0076,-0.0086,-0.0105,-0.0132,-0.015,-0.0161,-0.0196,-0.0227,-0.0273,-0.0305,-0.035,-0.0398,-0.0432,-0.0452,-0.0487,-0.0486,-0.0492,-0.0503,-0.053,-0.0535,-0.054,-0.0538,-0.0542,-0.0489,-0.0489,-0.0489,0,-0.0064,-0.0077,-0.0093,-0.0111,-0.0131,-0.0158,-0.0179,-0.021,-0.0262,-0.0289,-0.0297,-0.0385,-0.0417,-0.0473,-0.0485,-0.0495,-0.0495,-0.0488,-0.0533,-0.0538,-0.0543,-0.054,-0.0544,-0.049,-0.049,-0.049,-0.049,0,-0.0074,-0.0092,-0.01,-0.0133,-0.0158,-0.0178,-0.0216,-0.0253,-0.0289,-0.0318,-0.0384,-0.0424,-0.0471,-0.0489,-0.0499,-0.0547,-0.0531,-0.0536,-0.0523,-0.0549,-0.0544,-0.0549,-0.0491,-0.0491,-0.0491,-0.049,0,0,-0.0059,-0.0097,-0.0102,-0.012,-0.0171,-0.0187,-0.0242,-0.029,-0.0326,-0.0378,-0.0424,-0.0489,-0.0502,-0.0526,-0.0545,-0.0572,-0.06,-0.0562,-0.0563,-0.0556,-0.0635,-0.0585,-0.0585,-0.0609,-0.061,-0.0611,-0.0613,0,-0.0064,-0.0085,-0.0114,-0.0152,-0.0168,-0.0216,-0.026,-0.0313,-0.0358,-0.041,-0.046,-0.0499,-0.0517,-0.0527,-0.0566,-0.0597,-0.0615,-0.0598,-0.0615,-0.0616,-0.0565,-0.059,-0.0615,-0.0617,-0.0618,-0.0618,-0.0619,0,-0.0069,-0.0081,-0.0103,-0.0154,-0.0167,-0.0192,-0.0262,-0.0304,-0.0382,-0.0413,-0.0468,-0.0502,-0.0558,-0.0556,-0.0627,-0.0611,-0.0622,-0.0641,-0.0642,-0.0596,-0.0575,-0.059,-0.0627,-0.0627,-0.0626,-0.0625,-0.0625,0,-0.0042,-0.0081,-0.0093,-0.011,-0.0167,-0.0189,-0.0221,-0.0298,-0.0325,-0.0397,-0.0413,-0.0501,-0.0516,-0.0573,-0.061,-0.0617,-0.0672,-0.0685,-0.065,-0.0645,-0.0683,-0.0678,-0.0725,-0.0725,-0.0725,-0.0725,-0.0725,0,-0.004,-0.0053,-0.0071,-0.0079,-0.0095,-0.015,-0.0179,-0.0228,-0.0284,-0.0312,-0.0391,-0.0418,-0.0518,-0.0563,-0.061,-0.0636,-0.0668,-0.0656,-0.0651,-0.0685,-0.0681,-0.0685,-0.068,-0.0725,-0.0725,-0.0725,-0.0725,0,-0.0019,-0.0033,-0.0045,-0.0078,-0.0079,-0.0089,-0.0119,-0.0147,-0.0195,-0.0231,-0.0241,-0.0343,-0.0404,-0.0488,-0.0571,-0.0606,-0.0652,-0.0644,-0.0653,-0.0647,-0.0609,-0.0605,-0.0626,-0.0625,-0.0623,-0.0622,-0.0621,0,-0.0002,-0.0002,-0.0019,-0.0011,-0.0018,-0.0026,-0.0037,-0.0088,-0.0117,-0.0182,-0.0201,-0.026,-0.033,-0.0403,-0.0507,-0.0587,-0.0592,-0.0609,-0.0642,-0.061,-0.0603,-0.0601,-0.0599,-0.0619,-0.0619,-0.0619,-0.0618,0,0.0036,0.0026,0.001,0.003,0.0035,0.0021,0.0006,0.0008,-0.0063,-0.0091,-0.0138,-0.02,-0.0268,-0.0374,-0.0419,-0.0487,-0.061,-0.0595,-0.0599,-0.0631,-0.0602,-0.0596,-0.0595,-0.0614,-0.0614,-0.0615,-0.0615,0,0.0072,0.0066,0.0056,0.0071,0.0069,0.0058,0.0044,0.0018,-0.0004,-0.0068,-0.0077,-0.0167,-0.0229,-0.0319,-0.0375,-0.0427,-0.0454,-0.0477,-0.0488,-0.0494,-0.0462,-0.0406,-0.0355,0,0,0,0,0,0.0122,0.0114,0.0114,0.0108,0.0093,0.011,0.006,0.0033,-0.0003,-0.0015,-0.0042,-0.0101,-0.0195,-0.0259,-0.0298,-0.0372,-0.0478,-0.0421,-0.0512,-0.0588,-0.0593,-0.0576,0,0,0,0,0,0,0.0152,0.0144,0.0123,0.0136,0.016,0.014,0.0121,0.0086,0.0064,0.0031,-0.0021,-0.0061,-0.0162,-0.0126,-0.0265,-0.0291,-0.035,-0.0474,-0.0475,-0.0585,-0.059,-0.0594,-0.0578,0,0,0,0,0]}]]